Preview of NWS' New Version of Forecast
This preview is not operational and should not be used for support decisions.

Regional Weather Roundup (RWR)

Issued by National Weather Service (NWS)

                            
564 
ASUS44 KJAN 212310
RWRMS 

MISSISSIPPI HOURLY WEATHER ROUNDUP
NATIONAL WEATHER SERVICE JACKSON MS
600 PM CDT THU JUN 21 2018

NOTE: "FAIR: INDICATES FEW OR NO CLOUDS BELOW 12,000 FEET WITH NO
SIGNIFICANT WEATHER AND/OR OBSTRUCTIONS TO VISIBILITY.

MSZ001>002-007>008-010>013-018>021-025>028-034>036-220000-
NORTHWEST MISSISSIPPI
  
CITY           SKY/WX    TMP DP  RH WIND       PRES   REMARKS
BATESVILLE     FAIR      88  73  62 SW13G18   29.76F HX  96           
CLARKSDALE     SUNNY     90  77  66 SW9G16    29.76F HX 102           
CLEVELAND      FAIR      87  76  70 SW10      29.79S HX  97           
GREENWOOD      FAIR      88  75  65 SW10      29.79F HX  97           
GREENVILLE     FAIR      89  71  55 SW14      29.79F HX  95           
OLIVE BRANCH   PTSUNNY   81  72  74 MISG      29.73F                  
OXFORD         FAIR      86  72  62 SW13G20   29.79F HX  92           
TUNICA           N/A     86  70  58 SW14      29.75F HX  90           
WINONA         FAIR      86  74  67 W9        29.81F HX  94           
$$

MSZ003>006-009-014>017-022>024-029>033-037>039-220000-
NORTHEAST MISSISSIPPI
  
CITY           SKY/WX    TMP DP  RH WIND       PRES   REMARKS
ABERDEEN         N/A     90  88  94 SW6       29.80F HX 124           
COLUMBUS AFB   FAIR      83  72  70 SW7       29.79F                  
CORINTH        FAIR      86  70  58 SW10      29.75F HX  90           
GOLDN TRIANGLE FAIR      87  74  64 SW8G17    29.81F HX  95           
STARKVILLE     FAIR      86  73  66 SW6       29.82S HX  93           
TUPELO         FAIR      87  72  60 S8        29.77F HX  93           
$$

MSZ040-058-220000-
CENTRAL MISSISSIPPI
  
CITY           SKY/WX    TMP DP  RH WIND       PRES   REMARKS
JACKSON INTL   PTSUNNY   87  75  67 SW10      29.85F HX  96           
JACKSON HAWKNS FAIR      86  76  71 W9        29.85F HX  96           
MADISON        FAIR      86  73  66 SW6       29.84F HX  93           
MERIDIAN KEY   FAIR      85  74  69 SW13      29.86F HX  92           
MERIDIAN NAS   FAIR      84  77  79 SW6       29.86S HX  94           
RAYMOND        FAIR      88  77  70 W8        29.84F HX 100           
VICKSBURG VKS  PTCLDY    88  77  70 SW8         N/A  HX 100           
$$

MSZ059>079-220000-
SOUTH MISSISSIPPI
  
CITY           SKY/WX    TMP DP  RH WIND       PRES   REMARKS
COLUMBIA       FAIR      81  77  89 S6        29.93S                  
HATTIESBURG    FAIR      78  76  93 S6        29.90F                  
LAUREL         FAIR      77  76  96 S5        29.89S                  
MCCOMB         FAIR      83  75  77 S6        29.89F HX  90           
NATCHEZ        NOT AVBL                                               
PINE BELT      FAIR      76  75  97 S5        29.90F                  
$$

MSZ080>082-220000-
COASTAL MISSISSIPPI
  
CITY           SKY/WX    TMP DP  RH WIND       PRES   REMARKS
BAY ST LOUIS   MOSUNNY   81  73  78 VRB5      29.90F                  
BILOXI         FAIR      78  73  86 N5        29.89F                  
PASCAGOULA     FAIR      79  74  84 N5        29.90F                  
GULFPORT       FAIR      80  72  76 NE5       29.89F                  
$$

LAZ007>009-015>016-023>026-220000-
NORTHEAST LOUISIANA
  
CITY           SKY/WX    TMP DP  RH WIND       PRES   REMARKS
BASTROP        FAIR      91  73  55 W6        29.83S HX 100           
TALLULAH/VBURG FAIR      88  79  74 SW6       29.83S HX 103           
VIDALIA        MOCLDY    85  77  76 S12       29.86S HX  95           
$$